Retour au catalogue

STARLINK-32277

ActifCommunicationsVLEO
NORAD 60376·PAYLOAD·🇺🇸 United States

Lancé Aug 4, 2024 depuis Vandenberg Space Force Base

Loading…

Prochains Passages (prochaines 24 heures)

TLE

FraisSource: CelesTrak SupGP

Époque: Sep 14, 2026, 22:24 UTC

1 60376C 24138X   26257.93381944 -.00060236  00000+0 -17796-2 0  2570
2 60376  53.1576 149.7859 0001452  83.4443 253.9076 15.34421844    11

Suivez STARLINK-32277 en temps réel avec AllMySat

Download on the App Store